Weather History for EGQL - August, 2013

Change the Weather History Date:

Friday, August 2, 2013

  Actual Average (WUND) Record (WUND)
Temperature  
Mean Temperature 66 °F -  
Max Temperature 75 °F 63 °F - (-1)
Min Temperature 56 °F 50 °F - (-1)
Growing Degree Days 16 (Base 50)    
Moisture  
Dew Point 56 °F    
Average Humidity 76    
Maximum Humidity 100    
Minimum Humidity 32    
Precipitation  
Precipitation 0.04 in - - ()
Sea Level Pressure  
Sea Level Pressure 29.57 in    
Wind  
Wind Speed 7 mph ()    
Max Wind Speed 22 mph    
Max Gust Speed -    
Visibility 4.6 miles    
Events Fog , Rain    
Averages and records for this station are not official NWS values.
T = Trace of Precipitation, MM = Missing Value Source: Averaged Metar Reports

Daily Weather History Graph

Daily Weather History Graph

Search for Another Location

Airport or City:

Trip Planner

Search our weather history database for the weather conditions in past years. The results will help you decide how hot, cold, wet, or windy it might be!

Date:

Astronomy

Aug. 02, 2013 Rise Set
Actual Time 5:15 AM BST 9:18 PM BST
Civil Twilight 4:26 AM BST 10:06 PM BST
Nautical Twilight 3:13 AM BST 11:18 PM BST
Astronomical Twilight 1:50 AM BST 12:45 AM BST
Moon 1:17 AM BST (8/2) 6:13 PM BST (8/2)
Length of Visible Light 17h 40m
Length of Day
16h 02m
Waning Crescent, 17% of the Moon is Illuminated
Aug 2
Waning Crescent
Aug 6
New
Aug 14
First Quarter
Aug 21
Full
Aug 28
Last Quarter

Hourly Weather History & Observations

Time (BST) Temp. Dew Point Humidity Pressure Visibility Wind Dir Wind Speed Gust Speed Precip Events Conditions
12:50 AM 59 °F 58 °F 97% 29.62 in 3 mi East 1.2 mph - -   Mist
12:50 AM 59.0 °F 59.0 °F 100% 29.59 in 2.8 mi East 1.2 mph - N/A   Scattered Clouds
1:21 AM 59.0 °F 59.0 °F 100% 29.59 in 1.9 mi NNW 1.2 mph - N/A   Mostly Cloudy
1:50 AM 59.0 °F 59.0 °F 100% 29.59 in 2.2 mi ENE 2.3 mph - N/A   Overcast
2:50 AM 59.0 °F 59.0 °F 100% 29.56 in 1.6 mi East 3.5 mph - N/A   Overcast
3:50 AM 59 °F 58 °F 97% 29.56 in 1 mi ENE 5.8 mph - -   Mist
3:50 AM 59.0 °F 59.0 °F 100% 29.53 in 1.0 mi ENE 5.8 mph - N/A   Overcast
4:25 AM 59.0 °F 57.2 °F 94% 29.56 in 0.5 mi WSW 2.3 mph - N/A Fog Fog
4:50 AM 57.2 °F 57.2 °F 100% 29.56 in 0.3 mi NNE 4.6 mph - N/A Fog Fog
5:22 AM 57.2 °F 57.2 °F 100% 29.53 in 0.9 mi ENE 3.5 mph - N/A   Mostly Cloudy
5:50 AM 57.2 °F 57.2 °F 100% 29.56 in 5.6 mi NNE 3.5 mph - N/A Fog Shallow Fog
6:50 AM 59 °F 59 °F 98% 29.55 in 2 mi North 3.5 mph - - Rain Light Rain
6:50 AM 59.0 °F 59.0 °F 100% 29.53 in 6.2 mi North 3.5 mph - N/A Fog Shallow Fog
7:50 AM 62.6 °F 59.0 °F 88% 29.53 in 6.2 mi East 3.5 mph - N/A   Mostly Cloudy
8:50 AM 62.6 °F 60.8 °F 94% 29.56 in 6.2 mi SE 1.2 mph - N/A   Mostly Cloudy
9:26 AM 64.4 °F 60.8 °F 88% 29.56 in 6.2 mi SE 5.8 mph - N/A Rain Light Rain Showers
9:50 AM 63 °F 62 °F 95% 29.57 in 7 mi SW 5.8 mph - - Rain Light Rain Showers
9:50 AM 62.6 °F 62.6 °F 100% 29.56 in 6.2 mi SW 5.8 mph - N/A   Scattered Clouds
10:50 AM 69.8 °F 60.8 °F 73% 29.56 in 6.2 mi SW 8.1 mph - N/A   Mostly Cloudy
11:50 AM 71.6 °F 55.4 °F 57% 29.56 in 6.2 mi SW 20.7 mph - N/A   Mostly Cloudy
12:50 PM 74 °F 53 °F 37% 29.56 in 31 mi SSW 20.7 mph - -   Partly Cloudy
12:50 PM 73.4 °F 53.6 °F 50% 29.56 in 6.2 mi SSW 20.7 mph - N/A   Scattered Clouds
1:50 PM 73.4 °F 51.8 °F 47% 29.56 in 6.2 mi SSW 18.4 mph - N/A   Partly Cloudy
2:50 PM 73.4 °F 50.0 °F 44% 29.56 in 6.2 mi SSW 21.9 mph - N/A   Partly Cloudy
3:50 PM 74 °F 50 °F 32% 29.57 in 28 mi SSW 20.7 mph - -   Scattered Clouds
3:50 PM 73.4 °F 50.0 °F 44% 29.56 in 6.2 mi SSW 20.7 mph - N/A   Partly Cloudy
4:50 PM 73.4 °F 51.8 °F 47% 29.56 in 6.2 mi SSW 19.6 mph - N/A   Partly Cloudy
5:50 PM 71.6 °F 50.0 °F 46% 29.56 in 6.2 mi SSW 19.6 mph - N/A   Partly Cloudy
6:50 PM 69 °F 51 °F 41% 29.58 in 31 mi SSW 19.6 mph - -   Scattered Clouds
6:50 PM 69.8 °F 50.0 °F 49% 29.56 in 6.2 mi SSW 19.6 mph - N/A   Partly Cloudy
7:50 PM 66.2 °F 51.8 °F 60% 29.56 in 6.2 mi SSW 12.7 mph - N/A   Partly Cloudy
8:50 PM 64.4 °F 51.8 °F 64% 29.59 in 6.2 mi SSW 13.8 mph - N/A   Partly Cloudy
9:50 PM 61 °F 53 °F 66% 29.60 in 22 mi SW 9.2 mph - -   Scattered Clouds
9:50 PM 60.8 °F 51.8 °F 72% 29.59 in 6.2 mi SW 9.2 mph - N/A   Partly Cloudy
10:50 PM 60.8 °F 51.8 °F 72% 29.59 in 6.2 mi SSW 8.1 mph - N/A   Partly Cloudy
11:50 PM 59.0 °F 53.6 °F 82% 29.59 in 6.2 mi South 9.2 mph - N/A   Partly Cloudy